Regional Weather Roundup
Issued by NWS Midland/Odessa, TX

Home | Current Version | Previous Version | Text Only | Print | Product List | Glossary On
Versions: 1 2 3 4 5 6 7 8 9 10 11 12 13 14 15 16 17 18 19 20 21 22 23 24 25 26 27 28 29 30 31 32 33 34 35 36 37 38 39 40 41 42 43 44 45 46 47 48 49 50
000
ASUS44 KMAF 112201
RWRMAF
MIDLAND AREA WEATHER ROUNDUP
NATIONAL WEATHER SERVICE MIDLAND TX
400 PM CST THU FEB 11 2016

...IN SOUTHWEST TEXAS AND SOUTHEAST NEW MEXICO...

CITY           SKY/WX    TMP DP  RH WIND       PRES   REMARKS
ALPINE         SUNNY     75  13   9 N5        30.23F
ANDREWS        FAIR      68  26  20 N10       30.14S
ARTESIA        SUNNY     70  23  17 NE7       30.16F
BIG SPRING     SUNNY     70  26  19 S3        30.13S
CARLSBAD       SUNNY     72  21  14 NW14      30.14F
DRYDEN           N/A     83  16   8 SW13G20   30.06S
FORT STOCKTON  SUNNY     77  19  11 NW13      30.13F
GUAD PASS      SUNNY     70  13  11 W16       30.25S
HOBBS          SUNNY     68  21  17 N9        30.16F
MARFA          SUNNY     73  12   9 W14G20    30.22R
MIDLAND AIRPK  SUNNY     70  24  17 NW9       30.12F
MIDLAND INTL   SUNNY     71  24  17 NW12      30.12S
ODESSA         SUNNY     72  23  16 NW9       30.13S
PECOS          SUNNY     73  24  15 NW12G18   30.13F
PRESIDIO       FAIR      78  19  10 SW8       30.14F
SEMINOLE       SUNNY     67  26  20 N5        30.16S
SNYDER           N/A     67  29  24 NE6       30.12S
WINK           SUNNY     76  23  14 N12       30.11F
$$
...OTHER STATIONS IN TEXAS...

CITY           SKY/WX    TMP DP  RH WIND       PRES   REMARKS
ABILENE        SUNNY     72  30  21 N7        30.08F
AMARILLO       SUNNY     67  22  18 S6        30.13F
AUSTIN         MOSUNNY   80  36  20 S16G22    30.07S
BROWNSVILLE    SUNNY     76  52  43 S22G29    30.14S
CORPUS CHRISTI MOSUNNY   80  52  37 S22       30.10S
DALLAS FTW     MOSUNNY   73  34  23 N9        30.06R
DEL RIO        SUNNY     84  25  11 SE7       30.04F
EL PASO        SUNNY     71  17  12 CALM      30.20F
HOUSTON INT    MOSUNNY   79  41  25 SW13G21   30.09F
LUBBOCK        MOSUNNY   67  24  19 SE7       30.13F
SAN ANGELO     SUNNY     82  22  11 NW9       30.06S
SAN ANTONIO    SUNNY     80  33  18 S13       30.08S
WACO           SUNNY     82  33  17 S7        30.02F
WICHITA FALLS  NOT AVBL
$$
...OTHER LOCATIONS IN NEW MEXICO...

CITY           SKY/WX    TMP DP  RH WIND       PRES   REMARKS
ALAMAGORDO     SUNNY     73   7   7 NW13      30.19F
ALBUQUERQUE    MOSUNNY   65  15  14 W5        30.25F
CANNON AFB     NOT AVBL
CLOVIS         SUNNY     66  19  16 S3        30.17F
HOLLOMAN AFB   NOT AVBL
ROSWELL        SUNNY     71  16  12 E6        30.15F
RUIDOSO        SUNNY     63   0   8 NW9G20    30.31S
SANTA FE       SUNNY     60  16  18 SW6       30.26F
TRUTH OR CONSE SUNNY     69  12  11 VRB3      30.22F
TUCUMCARI      SUNNY     70   9   9 S8        30.13F
$$



USA.gov is the U.S. government's official web portal to all federal, state and local government web resources and services.